Location: Christchurch
(43.5330°S, 172.6330°E)
Time: 23:24:20
(UTC+12:00)

Daily predictions for brighter satellites

Satellite Brightness Start Highest point End
(mag) Time Altitude Azimuth Time Altitude Azimuth Time Altitude Azimuth
COSMOS 2428 2.8 17:40:14 10° N 17:45:51 61° ENE 17:51:31 10° SSE
Cosmos 1354 Rocket 4.4 17:42:26 10° S 17:47:31 42° ESE 17:52:30 10° NE
Lacrosse 5 3.2 17:47:02 10° SW 17:51:10 23° SSE 17:55:17 10° ESE
Cosmos 2360 Rocket 3.4 17:46:26 10° NW 17:51:45 42° WSW 17:57:09 10° SSE
Cosmos 2219 Rocket 2.2 17:46:19 10° NNW 17:51:56 82° ENE 17:57:36 10° SSE
USA 276 2.1 17:49:49 10° WSW 17:53:03 86° SSE 17:56:17 10° ENE
Cosmos 1953 Rocket 3.6 17:49:24 10° N 17:53:52 79° E 17:58:27 10° S
Cosmos 1825 Rocket 4.0 17:49:29 10° NNW 17:53:55 68° W 17:58:23 10° S
Nadezhda 4 Rocket 4.0 17:48:21 10° N 17:54:28 77° E 18:00:44 10° S
Cosmos 1092 Rocket 4.3 17:49:30 10° NNE 17:55:24 47° E 18:01:26 10° SSE
Meteor 2-8 Rocket 4.5 17:54:04 10° S 18:00:17 64° E 18:06:24 10° NNE
Cosmos 2058 3.3 17:56:38 10° NNE 18:00:32 42° E 18:04:31 10° SSE
SMAP 4.2 17:57:33 10° SE 18:01:26 24° E 18:05:14 10° NNE
Cosmos-2242 4.3 17:58:22 10° SSW 18:02:38 46° W 18:06:47 10° NNW
Atlas Centaur 2 4.0 17:58:31 10° NW 18:02:39 22° N 18:07:32 10° NE
Cosmos 1486 Rocket 4.4 17:57:37 10° SSW 18:02:55 74° WNW 18:08:13 10° NNE
Cosmos 2026 Rocket 4.4 17:59:14 10° NNE 18:05:16 45° E 18:11:21 10° SSE
COSMO-SKYMED 1 3.5 18:01:02 10° N 18:05:19 55° W 18:09:41 10° SSW
CSL-04 DEB 4.3 18:02:29 10° NNE 18:06:22 61° ESE 18:10:21 10° S
Cosmos 1992 Rocket 4.2 18:01:33 10° NNW 18:06:49 78° WSW 18:12:09 10° SSE
CENTAUR R/B 3.9 17:59:24 10° WNW 18:06:50 42° SW 18:13:13 10° SSE
IRIDIUM 103 4.4 18:01:49 10° S 18:07:03 57° E 18:12:12 10° NNE
H-2A R/B 3.5 18:03:22 10° N 18:07:20 41° W 18:11:18 10° SSW
CZ-2C R/B 2.8 18:01:49 10° NNE 18:07:21 59° ESE 18:12:54 10° S
ADEOS 4.4 18:03:58 10° S 18:09:09 55° WSW 18:14:17 10° NNW
USA 234 3.3 18:03:09 10° SE 18:09:47 76° NE 18:16:23 10° NW
Cosmos 1825 2.1 18:06:46 10° N 18:10:31 64° E 18:14:20 10° SSE
Cosmos 1842 Rocket 3.7 18:09:28 10° S 18:13:52 51° ESE 18:18:14 10° NNE
Cosmos 1408 3.2 18:10:19 10° NNW 18:14:01 63° W 18:17:48 10° S
Cosmos 1980 4.1 18:10:50 10° N 18:16:08 42° ENE 18:21:29 10° SE
Cosmos 405 Rocket 2.9 18:12:39 10° NNE 18:16:14 45° E 18:19:56 10° SSE
NOAA 6 4.3 18:13:37 10° SSE 18:18:37 46° E 18:23:33 10° N
Envisat 3.2 18:13:37 10° S 18:18:48 79° WSW 18:23:54 10° NNW
IRIDIUM 106 4.3 18:20:05 10° S 18:25:25 82° E 18:30:41 10° N
Cosmos 1356 3.3 18:22:27 10° N 18:25:51 67° E 18:29:19 10° SSE
Cosmos 1437 Rocket 3.2 18:23:25 10° S 18:27:00 36° ESE 18:30:33 10° NE
SL-16 R/B 3.6 18:24:44 10° NE 18:28:16 17° E 18:28:38 17° E
Cosmos 2221 2.4 18:25:07 10° S 18:29:28 77° E 18:33:46 10° NNE
CZ-4B DEB 4.4 18:24:20 10° SSE 18:29:45 52° E 18:35:05 10° N
CZ-4B R/B 2.6 18:28:07 10° N 18:31:03 41° W 18:34:03 10° SSW
Cosmos 1606 3.0 18:30:24 10° S 18:34:05 42° ESE 18:37:42 10° NNE
SL-8 R/B 3.8 18:30:57 10° NW 18:35:48 67° NNE 18:38:38 24° ESE
Cosmos 1689 Rocket 2.1 18:33:27 10° NNE 18:36:15 49° ESE 18:39:06 10° S
ATLAS 3B R/B 2.9 18:31:01 10° NNW 18:38:33 80° ENE 18:45:30 12° SE
Meteor 2-15 Rocket 4.4 18:35:13 10° S 18:41:25 77° E 18:47:31 10° NNE
Cosmos 2333 Rocket 3.6 18:39:16 10° WNW 18:44:28 36° SW 18:49:43 10° S
PSLV R/B 4.3 18:40:20 10° N 18:44:29 69° WNW 18:48:40 10° SSW
Cosmos 1900 4.4 18:43:12 10° SSW 18:48:16 58° SE 18:52:13 16° NE
Cosmos 1461 3.5 18:45:14 10° SSW 18:49:17 38° SE 18:50:14 34° E
Cosmos 1076 Rocket 3.4 18:46:13 10° N 18:50:30 77° E 18:54:53 10° S
Cosmos 1553 Rocket 3.9 18:45:31 10° S 18:51:38 60° E 18:57:38 10° NNE
Cosmos 1777 Rocket 3.9 18:47:24 10° SSW 18:52:45 73° ESE 18:58:00 10° NNE
Genesis I 3.5 18:53:10 10° NW 18:57:07 67° SW 18:59:04 28° SSE
Cosmos 2237 Rocket 2.1 18:52:40 10° NNW 18:58:21 86° ENE 19:03:17 15° SSE
PSLV R/B 4.0 18:54:37 10° S 18:58:27 67° WSW 19:02:11 10° NNW
deb Chang Zheng 4 4.5 18:54:20 10° S 18:58:36 50° WSW 19:02:50 10° NW
CZ-2C R/B 2.9 18:59:03 21° SSE 19:02:05 51° E 19:06:43 10° N
Cosmos 1809 Rocket 4.4 18:56:51 10° N 19:02:58 64° E 19:09:09 10° SSE
CORIOLIS 4.1 18:57:44 10° SSE 19:03:16 77° ENE 19:08:45 10° N
Cosmos 2151 2.9 19:00:13 10° N 19:04:22 59° E 19:05:43 39° SE
Cosmos 1417 Rocket 4.5 18:59:55 10° S 19:06:21 66° E 19:12:39 10° NNE
ERS-2 2.0 19:03:07 10° NNE 19:06:48 89° WNW 19:10:33 10° SSW
SJ 16-02 1.8 19:02:49 10° S 19:06:30 41° SE 19:06:30 41° SE
Okean O Rocket 1.7 19:06:03 40° SE 19:07:22 55° E 19:11:46 10° N
NOAA 12 4.4 19:02:22 10° S 19:07:45 71° WSW 19:13:03 10° NNW
BREEZE-M DEB 3.1 19:07:11 10° W 19:09:25 36° WSW 19:09:25 36° WSW
Cosmos 1607 4.5 19:05:41 10° SSW 19:11:19 36° SE 19:11:53 35° SE
ATLAS CENTAUR R/B 3.2 19:08:45 10° SSW 19:10:37 19° S 19:10:37 19° S
Cosmos 1633 2.5 19:10:05 10° N 19:13:40 83° W 19:14:15 61° S
Cosmos 1943 Rocket 3.2 19:12:00 10° S 19:15:54 29° SSE 19:15:54 29° SSE
Cosmos 1655 Rocket 4.0 19:15:03 10° N 19:21:16 64° E 19:27:38 10° SSE
Cosmos 2278 Rocket 3.0 19:16:46 10° SW 19:22:20 52° WNW 19:27:48 10° N
Cosmos 1939 Rocket 3.2 19:23:02 25° S 19:25:25 68° WSW 19:29:35 10° NNW
Cosmos 2292 Rocket 4.0 19:22:44 10° NNW 19:26:50 70° W 19:32:26 10° S
Meteor 2-3 Rocket 3.6 19:21:25 10° N 19:26:59 68° E 19:29:42 32° SSE
Cosmos 2369 Rocket 4.0 19:23:56 10° S 19:25:49 17° SSE 19:25:49 17° SSE
CZ-4B R/B 3.1 19:24:12 12° SSE 19:29:14 88° WSW 19:34:34 10° NNW
H-2A R/B 3.3 19:33:35 38° NNW 19:33:35 38° NNW 19:36:03 10° NNW
Meteor 2-16 Rocket 4.4 19:27:25 10° N 19:33:25 59° E 19:33:55 57° ESE
Lacrosse 5 1.8 19:29:48 10° SW 19:34:45 68° SSE 19:34:45 68° SSE
SMAP 4.5 19:34:29 10° S 19:38:51 37° WSW 19:43:09 10° NW
Meteor 2-21 Rocket 4.3 19:33:38 10° N 19:39:52 79° E 19:46:11 10° S
Atlas Centaur 2 4.2 19:46:23 10° NW 19:51:00 22° N 19:52:48 20° NNE
USA 234 4.1 19:50:01 31° SSE 19:52:31 43° SSW 19:58:40 10° W
Cosmos 883 Rocket 4.4 19:50:36 10° S 19:56:26 77° SSE 19:56:26 77° SSE
Cosmos 1867 4.3 19:53:26 10° SSW 19:57:04 42° SSW 19:57:04 42° SSW
SL-16 R/B 2.7 20:06:03 10° NNW 20:10:35 56° WNW 20:10:35 56° WNW
Cosmos 2266 Rocket 4.4 20:08:57 10° NNW 20:14:56 60° W 20:21:04 10° S
BREEZE-M DEB (TANK) 4.5 20:08:25 10° W 20:14:26 44° SW 20:14:26 44° SW
ATLAS 3B R/B 4.3 20:23:31 10° W 20:30:03 31° SW 20:32:46 25° S
Okean O Rocket 4.3 20:43:31 17° WSW 20:43:31 17° WSW 20:46:07 10° WNW
SJ 16-02 4.2 20:42:17 10° SW 20:43:33 15° WSW 20:43:33 15° WSW
Cosmos 1943 Rocket 4.3 20:55:33 10° SW 20:57:28 21° SW 20:57:28 21° SW
